Location: Marcé
(47.5801°N, 0.3280°W)
Time: 18:43:33
(UTC+01:00)

Tiros 1 - Pass Details

Date: 03 December 2021
Orbit: 629 x 664 km, 48.4° (Epoch: 26 January)

Event Time Altitude Azimuth Distance (km) Brightness Sun altitude
Rises 23:59:54 0° 282° (WNW) 2,950 - -62.5°
Reaches altitude 10° 00:02:14 10° 281° (WNW) 2,045 - -62.7°
Maximum altitude 00:06:57 86° 195° (SSW) 658 - -63.0°
Drops below altitude 10° 00:11:44 10° 106° (ESE) 2,063 - -63.3°
Sets 00:14:05 0° 106° (ESE) 2,979 - -63.5°
